Regional Weather Roundup
Issued by NWS

Home | Current Version | Previous Version | Graphics & Text | Print | Product List | Glossary On
Versions: 1 2 3 4 5 6 7 8 9 10 11 12 13 14 15 16 17 18 19 20 21 22 23 24 25 26 27 28 29 30 31 32 33 34 35 36 37 38 39 40 41 42 43 44 45 46 47 48 49 50
000
ASUS45 KBOI 051810
RWRID
WEATHER ROUNDUP FOR IDAHO
NATIONAL WEATHER SERVICE BOISE ID
1200 PM MDT TUE MAY 05 2015

NOTE: "FAIR" INDICATES FEW OR NO CLOUDS BELOW 12000 FEET
WITH NO SIGNIFICANT WEATHER AND/OR OBSTRUCTIONS TO VISIBILITY

IDZ012-014-051900-
SOUTHWEST IDAHO


CITY           SKY/WX    TMP DP  RH WIND       PRES   REMARKS
BOISE          SUNNY     64  32  30 NW21      29.89R
CALDWELL       SUNNY     63  36  36 NW17G23   29.91R
MOUNTAIN HOME  MOSUNNY   67  29  24 NW25G35   29.85F
$$

IDZ016-017-051900-
SOUTHCENTRAL IDAHO


CITY           SKY/WX    TMP DP  RH WIND       PRES   REMARKS
BURLEY         MOSUNNY   66  43  43 W15G23    29.83F
JEROME         SUNNY     67  36  31 SW18      29.86S
TWIN FALLS     SUNNY     69  35  28 W18G28    29.87R
$$

IDZ019>023-051900-
SOUTHEAST IDAHO


CITY           SKY/WX    TMP DP  RH WIND       PRES   REMARKS
IDAHO FALLS    MOSUNNY   67  41  38 S9        29.84F
POCATELLO      MOSUNNY   69  41  36 W8        29.84F
REXBURG        PTSUNNY   66  39  37 S7        29.84F
$$

IDZ006-010-011-018-031-032-051900-
CENTRAL IDAHO MOUNTAINS


CITY           SKY/WX    TMP DP  RH WIND       PRES   REMARKS
MCCALL         PTSUNNY   53  35  50 W14       29.88S HAZE
HAILEY         MOSUNNY   63  45  51 SE12      29.87F
STANLEY        NOT AVBL
SALMON           N/A     63  34  34 CALM      29.78F
CHALLIS        MOSUNNY   64  34  32 VRB3      29.81F
$$

IDZ002-004-006-007-026-051900-
NORTHERN IDAHO


CITY           SKY/WX    TMP DP  RH WIND       PRES   REMARKS
LEWISTON       MOSUNNY   62  31  31 CALM      29.97S
LOWELL           N/A     57  36  45 S5        29.98S
COEUR D`ALENE  CLOUDY    52  30  43 SW17      29.97S
MULLAN PASS    PTSUNNY   38  26  62 VRB7      29.93S WCI  33
$$



USA.gov is the U.S. government's official web portal to all federal, state and local government web resources and services.